Regional Weather Roundup
Issued by NWS

Home | Current Version | Previous Version | Text Only | Print | Product List | Glossary Off
Versions: 1 2 3 4 5 6 7 8 9 10 11 12 13 14 15 16 17 18 19 20 21 22 23 24 25 26 27 28 29 30 31 32 33 34 35 36 37 38 39 40 41 42 43 44 45 46 47 48 49 50

336
ASUS43 KFSD 080710
RWRSD

WEATHER ROUNDUP FOR SOUTH DAKOTA
NATIONAL WEATHER SERVICE SIOUX FALLS SD
100 AM CST THU DEC 08 2016

NOTE: "FAIR" INDICATES FEW OR NO CLOUDS BELOW 12,000 FEET WITH NO
SIGNIFICANT WEATHER AND/OR OBSTRUCTIONS TO VISIBILITY.


SDZ001>005-009-010-012>017-080800-
NORTHWEST AND NORTH CENTRAL SOUTH DAKOTA

CITY           SKY/WX    TMP DP  RH WIND       PRES   REMARKS
BUFFALO          N/A      0  -6  76 W22G29    30.43R WCI -23
FAITH            N/A      2  -4  76 NW23      30.49R WCI -21
MOBRIDGE       CLOUDY     6  -3  66 NW24      30.46R WCI -16
$$

SDZ012>016-024>037-041>051-057-063-072>074-080800-
SOUTHWEST AND SOUTH CENTRAL SOUTH DAKOTA

CITY           SKY/WX    TMP DP  RH WIND       PRES   REMARKS
RAPID CTY ARPT CLEAR      4  -6  63 N17       30.49S WCI -16
PIERRE         MIX PCPN   8   1  73 NW31G38   30.50S WCI -15
CUSTER         CLEAR     -2 -12  62 N3        30.27S
ELLSWORTH AFB  CLEAR      4  -6  63 N16       30.48S WCI -15
PHILIP         CLEAR      4  -4  69 NW16G24   30.55R WCI -15
PINE RIDGE     CLOUDY    -9 -13  83 CALM      30.50S
SPEARFISH      FAIR       1  -8  66 W12G17    30.47S WCI -15
WINNER         FAIR       7  -2  66 NW18G29   30.51R WCI -12
$$

SDZ004>011-016>023-039-040-080800-
NORTHEAST SOUTH DAKOTA

CITY           SKY/WX    TMP DP  RH WIND       PRES   REMARKS
ABERDEEN       LGT SNOW  10   3  73 NW20G31   30.41R WCI  -9
WATERTOWN      CLOUDY     8   3  80 NW21G31   30.30S HAZE    WCI -12
BROOKINGS      FLURRIES   8   3  80 NW24      30.31S WCI -13
SISSETON         N/A     13   7  77 NW24G33   30.30R WCI  -7
$$

SDZ017-020-022-023-036>040-048>070-080800-
SOUTHEAST SOUTH DAKOTA

CITY           SKY/WX    TMP DP  RH WIND       PRES   REMARKS
SIOUX FALLS    CLOUDY     9   3  77 NW21G28   30.38R WCI -11
HURON          FLURRIES   7   2  80 NW25G32   30.45R WCI -15
CHAMBERLAIN    PTCLDY     8   3  78 NW15G21   30.51R WCI  -9
MITCHELL       CLEAR      8   0  69 NW20      30.48R WCI -11
YANKTON        CLEAR     10   1  67 W21G28    30.46R WCI  -9
$$

ABBREVIATIONS USED IN REMARKS
   TC - TEMPERATURE IN CELSIUS
  WCI - WIND CHILL INDEX
   HX - HEAT INDEX
  VSB - VISIBILITY





USA.gov is the U.S. government's official web portal to all federal, state and local government web resources and services.